| time (UTC) | temp F | wind direction | speed MPH | gust MPH | rain 1hr in | rain 24hr in | rain mn in | humidity % | barometer mb |
| 20260504202203 | 69 | 295 | 2.0 | 5.0 | 0.00 | 0.00 | 0.00 | 61 | 1010.3 |
| 20260504201700 | 69 | 295 | 2.0 | 5.0 | 0.00 | 0.00 | 0.00 | 61 | 1010.2 |
| 20260504201158 | 70 | 291 | 3.0 | 6.0 | 0.00 | 0.00 | 0.00 | 58 | 1010.2 |
| 20260504200655 | 70 | 291 | 3.0 | 6.0 | 0.00 | 0.00 | 0.00 | 58 | 1010.4 |
| 20260504200151 | 70 | 322 | 3.0 | 5.0 | 0.00 | 0.00 | 0.00 | 60 | 1010.4 |
| 20260504195647 | 69 | 270 | 4.0 | 4.0 | 0.00 | 0.00 | 0.00 | 60 | 1010.3 |
| 20260504195143 | 69 | 270 | 4.0 | 4.0 | 0.00 | 0.00 | 0.00 | 60 | 1010.4 |
| 20260504194640 | 69 | 270 | 4.0 | 4.0 | 0.00 | 0.00 | 0.00 | 60 | 1010.4 |
| 20260504194137 | 69 | 270 | 4.0 | 4.0 | 0.00 | 0.00 | 0.00 | 60 | 1010.3 |
| 20260504193633 | 69 | 270 | 4.0 | 4.0 | 0.00 | 0.00 | 0.00 | 60 | 1010.3 |
| 20260504193131 | 69 | 270 | 4.0 | 4.0 | 0.00 | 0.00 | 0.00 | 60 | 1010.3 |
| 20260504192629 | 69 | 270 | 4.0 | 4.0 | 0.00 | 0.00 | 0.00 | 60 | 1010.2 |
| 20260504192127 | 69 | 270 | 4.0 | 4.0 | 0.00 | 0.00 | 0.00 | 60 | 1010.4 |
| 20260504191625 | 72 | 315 | 5.0 | 5.0 | 0.00 | 0.00 | 0.00 | 56 | 1010.4 |
| 20260504191121 | 72 | 315 | 5.0 | 5.0 | 0.00 | 0.00 | 0.00 | 56 | 1010.4 |
| 20260504190617 | 72 | 311 | 4.0 | 6.0 | 0.00 | 0.00 | 0.00 | 57 | 1010.3 |
| 20260504190114 | 73 | 314 | 4.0 | 5.0 | 0.00 | 0.00 | 0.00 | 56 | 1010.2 |
| 20260504185610 | 73 | 307 | 2.0 | 4.0 | 0.00 | 0.00 | 0.00 | 53 | 1010.1 |
| 20260504185107 | 73 | 307 | 2.0 | 4.0 | 0.00 | 0.00 | 0.00 | 53 | 1010.2 |
| 20260504184603 | 73 | 289 | 0.0 | 4.0 | 0.00 | 0.00 | 0.00 | 54 | 1010.1 |
| 20260504184058 | 73 | 290 | 5.0 | 5.0 | 0.00 | 0.00 | 0.00 | 53 | 1010.3 |
| 20260504183555 | 73 | 281 | 2.0 | 3.0 | 0.00 | 0.00 | 0.00 | 55 | 1010.4 |
| 20260504183053 | 73 | 296 | 3.0 | 4.0 | 0.00 | 0.00 | 0.00 | 55 | 1010.2 |
| 20260504182550 | 73 | 13 | 4.0 | 6.0 | 0.00 | 0.00 | 0.00 | 52 | 1010.3 |
| 20260504182047 | 71 | 357 | 2.0 | 6.0 | 0.00 | 0.00 | 0.00 | 54 | 1010.4 |
| 20260504181544 | 71 | 2 | 2.0 | 6.0 | 0.00 | 0.00 | 0.00 | 52 | 1010.6 |
| 20260504181042 | 71 | 354 | 3.0 | 4.0 | 0.00 | 0.00 | 0.00 | 58 | 1010.4 |
| 20260504180541 | 71 | 25 | 2.0 | 4.0 | 0.00 | 0.00 | 0.00 | 56 | 1010.3 |
| 20260504180040 | 71 | 344 | 5.0 | 6.0 | 0.00 | 0.00 | 0.00 | 51 | 1010.5 |
| 20260504175536 | 71 | 315 | 4.0 | 7.0 | 0.00 | 0.00 | 0.00 | 49 | 1010.3 |
| 20260504175033 | 72 | 344 | 6.0 | 8.0 | 0.00 | 0.00 | 0.00 | 49 | 1010.6 |
| 20260504174531 | 71 | 348 | 2.0 | 3.0 | 0.00 | 0.00 | 0.00 | 47 | 1010.4 |
| 20260504174028 | 71 | 340 | 3.0 | 6.0 | 0.00 | 0.00 | 0.00 | 52 | 1010.4 |
| 20260504173525 | 70 | 28 | 1.0 | 2.0 | 0.00 | 0.00 | 0.00 | 57 | 1010.4 |
| 20260504173022 | 70 | 357 | 2.0 | 3.0 | 0.00 | 0.00 | 0.00 | 54 | 1010.5 |
| 20260504172518 | 70 | 3 | 2.0 | 3.0 | 0.00 | 0.00 | 0.00 | 53 | 1010.6 |
| 20260504172015 | 69 | 356 | 1.0 | 2.0 | 0.00 | 0.00 | 0.00 | 57 | 1010.6 |
| 20260504171512 | 69 | 347 | 1.0 | 3.0 | 0.00 | 0.00 | 0.00 | 55 | 1010.6 |
| 20260504171009 | 69 | 359 | 2.0 | 3.0 | 0.00 | 0.00 | 0.00 | 56 | 1010.7 |
| 20260504170504 | 69 | 342 | 5.0 | 6.0 | 0.00 | 0.00 | 0.00 | 53 | 1010.6 |
| 20260504160425 | 71 | 292 | 2.0 | 2.0 | 0.00 | 0.00 | 0.00 | 52 | 1010.4 |
| 20260504150848 | 68 | 209 | 0.0 | 0.0 | 0.00 | 0.00 | 0.00 | 64 | 1010.1 |
| 20260504150345 | 54 | 243 | 3.0 | 4.0 | 0.00 | 0.00 | 0.00 | 76 | 1009.9 |
| 20260504141315 | 54 | 243 | 3.0 | 4.0 | 0.00 | 0.00 | 0.00 | 76 | 1009.5 |
| 20260504140812 | 54 | 243 | 3.0 | 4.0 | 0.00 | 0.00 | 0.00 | 76 | 1009.6 |
| 20260504140307 | 53 | 260 | 2.0 | 4.0 | 0.00 | 0.00 | 0.00 | 75 | 1009.6 |
| 20260504130736 | 49 | 221 | 2.0 | 3.0 | 0.00 | 0.00 | 0.00 | 80 | 1009.3 |
| 20260504130232 | 49 | 221 | 2.0 | 3.0 | 0.00 | 0.00 | 0.00 | 80 | 1009.2 |
| 20260504120156 | 50 | 211 | 3.0 | 3.0 | 0.00 | 0.00 | 0.00 | 78 | 1009.2 |
| 20260504110623 | 50 | 225 | 2.0 | 2.0 | 0.00 | 0.00 | 0.00 | 77 | 1009.2 |
| 20260504110119 | 50 | 225 | 2.0 | 2.0 | 0.00 | 0.00 | 0.00 | 77 | 1009.1 |
| 20260504100545 | 53 | 224 | 0.0 | 1.0 | 0.00 | 0.00 | 0.00 | 71 | 1009.0 |
| 20260504081938 | 62 | 205 | 3.0 | 4.0 | 0.00 | 0.00 | 0.00 | 48 | 1008.7 |
| 20260504081436 | 62 | 239 | 2.0 | 3.0 | 0.00 | 0.00 | 0.00 | 49 | 1008.8 |
| 20260504080931 | 62 | 222 | 2.0 | 4.0 | 0.00 | 0.00 | 0.00 | 48 | 1008.9 |
| 20260504080428 | 63 | 247 | 2.0 | 3.0 | 0.00 | 0.00 | 0.00 | 48 | 1008.8 |
| 20260504070356 | 53 | 251 | 2.0 | 4.0 | 0.00 | 0.00 | 0.00 | 75 | 1009.2 |
| 20260504050743 | 59 | 210 | 2.0 | 3.0 | 0.00 | 0.00 | 0.00 | 68 | 1009.6 |
| 20260504050241 | 59 | 201 | 3.0 | 3.0 | 0.00 | 0.00 | 0.00 | 69 | 1009.5 |
| 20260504045739 | 59 | 215 | 2.0 | 3.0 | 0.00 | 0.00 | 0.00 | 69 | 1009.2 |
| 20260504045238 | 59 | 192 | 3.0 | 3.0 | 0.00 | 0.00 | 0.00 | 70 | 1009.4 |
| 20260504044737 | 58 | 206 | 2.0 | 3.0 | 0.00 | 0.00 | 0.00 | 69 | 1009.4 |
| 20260504044234 | 58 | 221 | 2.0 | 2.0 | 0.00 | 0.00 | 0.00 | 70 | 1009.3 |
| 20260504043731 | 60 | 201 | 1.0 | 3.0 | 0.00 | 0.00 | 0.00 | 66 | 1009.3 |
| 20260504043228 | 60 | 326 | 0.0 | 0.0 | 0.00 | 0.00 | 0.00 | 64 | 1009.2 |
| 20260504042726 | 61 | 326 | 1.0 | 3.0 | 0.00 | 0.00 | 0.00 | 65 | 1009.4 |
| 20260504042222 | 62 | 226 | 1.0 | 1.0 | 0.00 | 0.00 | 0.00 | 58 | 1009.3 |
| 20260504041718 | 62 | 227 | 1.0 | 2.0 | 0.00 | 0.00 | 0.00 | 61 | 1009.3 |
| 20260504041214 | 62 | 202 | 1.0 | 2.0 | 0.00 | 0.00 | 0.00 | 63 | 1009.0 |
| 20260504040710 | 61 | 214 | 2.0 | 3.0 | 0.00 | 0.00 | 0.00 | 65 | 1009.4 |
| 20260504040208 | 60 | 202 | 2.0 | 3.0 | 0.00 | 0.00 | 0.00 | 67 | 1009.3 |
| 20260504035704 | 61 | 213 | 2.0 | 3.0 | 0.00 | 0.00 | 0.00 | 67 | 1009.1 |
| 20260504035201 | 62 | 208 | 3.0 | 3.0 | 0.00 | 0.00 | 0.00 | 66 | 1009.0 |
| 20260504034659 | 62 | 217 | 2.0 | 3.0 | 0.00 | 0.00 | 0.00 | 68 | 1009.2 |
| 20260504034155 | 62 | 217 | 2.0 | 4.0 | 0.00 | 0.00 | 0.00 | 67 | 1009.2 |
| 20260504033653 | 63 | 223 | 3.0 | 3.0 | 0.00 | 0.00 | 0.00 | 66 | 1009.0 |
| 20260504033150 | 64 | 203 | 1.0 | 2.0 | 0.00 | 0.00 | 0.00 | 62 | 1009.0 |
| 20260504032647 | 64 | 201 | 2.0 | 2.0 | 0.00 | 0.00 | 0.00 | 60 | 1009.0 |
| 20260504032144 | 65 | 211 | 1.0 | 2.0 | 0.00 | 0.00 | 0.00 | 61 | 1008.9 |
| 20260504031641 | 66 | 206 | 1.0 | 2.0 | 0.00 | 0.00 | 0.00 | 61 | 1008.9 |
| 20260504031137 | 67 | 209 | 1.0 | 2.0 | 0.00 | 0.00 | 0.00 | 60 | 1009.1 |
| 20260504030634 | 68 | 209 | 1.0 | 2.0 | 0.00 | 0.00 | 0.00 | 58 | 1009.1 |
| 20260504030131 | 68 | 221 | 0.0 | 2.0 | 0.00 | 0.00 | 0.00 | 57 | 1008.9 |
| 20260504025628 | 69 | 221 | 1.0 | 2.0 | 0.00 | 0.00 | 0.00 | 55 | 1009.2 |
| 20260504025125 | 70 | 210 | 2.0 | 2.0 | 0.00 | 0.00 | 0.00 | 56 | 1009.2 |
| 20260504024622 | 71 | 282 | 0.0 | 0.0 | 0.00 | 0.00 | 0.00 | 49 | 1009.4 |
| 20260504024118 | 71 | 282 | 1.0 | 2.0 | 0.00 | 0.00 | 0.00 | 49 | 1009.2 |
| 20260504023615 | 71 | 322 | 0.0 | 0.0 | 0.00 | 0.00 | 0.00 | 46 | 1009.3 |
| 20260504023111 | 73 | 322 | 0.0 | 0.0 | 0.00 | 0.00 | 0.00 | 45 | 1009.2 |
| 20260504022608 | 72 | 322 | 0.0 | 2.0 | 0.00 | 0.00 | 0.00 | 41 | 1009.4 |
| 20260504022103 | 73 | 326 | 0.0 | 0.0 | 0.00 | 0.00 | 0.00 | 42 | 1009.4 |
| 20260504021602 | 74 | 326 | 0.0 | 0.0 | 0.00 | 0.00 | 0.00 | 38 | 1009.4 |
| 20260504021058 | 74 | 326 | 0.0 | 1.0 | 0.00 | 0.00 | 0.00 | 40 | 1009.5 |
| 20260504020555 | 74 | 321 | 1.0 | 2.0 | 0.00 | 0.00 | 0.00 | 41 | 1009.6 |
| 20260504020051 | 76 | 327 | 3.0 | 4.0 | 0.00 | 0.00 | 0.00 | 42 | 1009.6 |
| 20260504015548 | 78 | 229 | 1.0 | 1.0 | 0.00 | 0.00 | 0.00 | 36 | 1009.5 |
| 20260504015044 | 80 | 229 | 1.0 | 1.0 | 0.00 | 0.00 | 0.00 | 35 | 1009.5 |
| 20260504014540 | 81 | 229 | 0.0 | 0.0 | 0.00 | 0.00 | 0.00 | 36 | 1009.6 |
| 20260504014038 | 80 | 229 | 0.0 | 0.0 | 0.00 | 0.00 | 0.00 | 36 | 1009.7 |
| 20260504013535 | 79 | 219 | 0.0 | 1.0 | 0.00 | 0.00 | 0.00 | 38 | 1009.8 |
| 20260504013032 | 77 | 212 | 1.0 | 2.0 | 0.00 | 0.00 | 0.00 | 34 | 1009.8 |
| 20260504012529 | 77 | 158 | 2.0 | 2.0 | 0.00 | 0.00 | 0.00 | 38 | 1009.8 |
| 20260504012027 | 77 | 160 | 1.0 | 2.0 | 0.00 | 0.00 | 0.00 | 40 | 1010.1 |
| 20260504011523 | 77 | 160 | 1.0 | 2.0 | 0.00 | 0.00 | 0.00 | 33 | 1010.1 |
| 20260504011020 | 77 | 169 | 2.0 | 2.0 | 0.00 | 0.00 | 0.00 | 33 | 1010.3 |
| 20260504010515 | 76 | 343 | 0.0 | 0.0 | 0.00 | 0.00 | 0.00 | 42 | 1010.2 |
| 20260504010011 | 76 | 334 | 0.0 | 2.0 | 0.00 | 0.00 | 0.00 | 39 | 1010.1 |
| 20260504005509 | 76 | 331 | 0.0 | 2.0 | 0.00 | 0.00 | 0.00 | 37 | 1010.4 |
| 20260504005006 | 76 | 339 | 1.0 | 2.0 | 0.00 | 0.00 | 0.00 | 36 | 1010.6 |
| 20260504004504 | 75 | 333 | 2.0 | 2.0 | 0.00 | 0.00 | 0.00 | 37 | 1010.5 |
| 20260504004000 | 75 | 335 | 2.0 | 4.0 | 0.00 | 0.00 | 0.00 | 36 | 1010.5 |
| 20260504003456 | 75 | 312 | 1.0 | 4.0 | 0.00 | 0.00 | 0.00 | 42 | 1010.5 |
| 20260504002953 | 75 | 334 | 2.0 | 3.0 | 0.00 | 0.00 | 0.00 | 38 | 1010.4 |
| 20260504002450 | 75 | 330 | 2.0 | 3.0 | 0.00 | 0.00 | 0.00 | 40 | 1010.6 |
| 20260504001948 | 75 | 342 | 2.0 | 4.0 | 0.00 | 0.00 | 0.00 | 39 | 1010.8 |
| 20260504001445 | 75 | 355 | 3.0 | 4.0 | 0.00 | 0.00 | 0.00 | 39 | 1010.7 |
| 20260504000942 | 75 | 347 | 3.0 | 4.0 | 0.00 | 0.00 | 0.00 | 40 | 1010.8 |
| 20260504000439 | 75 | 334 | 3.0 | 6.0 | 0.00 | 0.00 | 0.00 | 42 | 1010.8 |
| 20260503235936 | 75 | 349 | 4.0 | 6.0 | 0.00 | 0.00 | 0.00 | 42 | 1010.9 |
| 20260503235433 | 75 | 341 | 2.0 | 4.0 | 0.00 | 0.00 | 0.00 | 41 | 1010.9 |
| 20260503234931 | 75 | 330 | 2.0 | 4.0 | 0.00 | 0.00 | 0.00 | 37 | 1010.9 |
| 20260503234428 | 75 | 349 | 4.0 | 6.0 | 0.00 | 0.00 | 0.00 | 40 | 1011.0 |
| 20260503233926 | 74 | 1 | 3.0 | 4.0 | 0.00 | 0.00 | 0.00 | 39 | 1010.9 |
| 20260503233423 | 75 | 337 | 3.0 | 4.0 | 0.00 | 0.00 | 0.00 | 41 | 1011.1 |
| 20260503232919 | 74 | 6 | 4.0 | 4.0 | 0.00 | 0.00 | 0.00 | 45 | 1011.1 |
| 20260503232416 | 74 | 359 | 4.0 | 6.0 | 0.00 | 0.00 | 0.00 | 49 | 1011.1 |
| 20260503231914 | 74 | 13 | 4.0 | 6.0 | 0.00 | 0.00 | 0.00 | 44 | 1011.3 |
| 20260503231411 | 75 | 351 | 4.0 | 4.0 | 0.00 | 0.00 | 0.00 | 44 | 1011.2 |
| 20260503230907 | 75 | 350 | 2.0 | 6.0 | 0.00 | 0.00 | 0.00 | 44 | 1011.3 |
| 20260503230404 | 75 | 339 | 1.0 | 3.0 | 0.00 | 0.00 | 0.00 | 46 | 1011.4 |
| 20260503225902 | 75 | 337 | 4.0 | 4.0 | 0.00 | 0.00 | 0.00 | 43 | 1011.4 |
| 20260503225357 | 74 | 357 | 2.0 | 3.0 | 0.00 | 0.00 | 0.00 | 46 | 1011.5 |
| 20260503224854 | 74 | 356 | 2.0 | 4.0 | 0.00 | 0.00 | 0.00 | 41 | 1011.5 |
| 20260503224351 | 74 | 13 | 2.0 | 3.0 | 0.00 | 0.00 | 0.00 | 52 | 1011.6 |
| 20260503223849 | 74 | 10 | 3.0 | 3.0 | 0.00 | 0.00 | 0.00 | 45 | 1011.8 |
| 20260503223346 | 74 | 11 | 2.0 | 3.0 | 0.00 | 0.00 | 0.00 | 46 | 1011.7 |
| 20260503222841 | 75 | 355 | 4.0 | 4.0 | 0.00 | 0.00 | 0.00 | 46 | 1011.8 |
| 20260503222340 | 74 | 334 | 4.0 | 4.0 | 0.00 | 0.00 | 0.00 | 43 | 1011.9 |
| 20260503221838 | 75 | 333 | 1.0 | 3.0 | 0.00 | 0.00 | 0.00 | 42 | 1012.1 |
| 20260503221337 | 73 | 322 | 1.0 | 3.0 | 0.00 | 0.00 | 0.00 | 51 | 1012.1 |
| 20260503220832 | 73 | 11 | 2.0 | 4.0 | 0.00 | 0.00 | 0.00 | 52 | 1012.1 |
| 20260503220329 | 73 | 347 | 2.0 | 6.0 | 0.00 | 0.00 | 0.00 | 53 | 1012.3 |
| 20260503215826 | 72 | 316 | 2.0 | 6.0 | 0.00 | 0.00 | 0.00 | 46 | 1012.3 |
| 20260503215323 | 72 | 317 | 4.0 | 6.0 | 0.00 | 0.00 | 0.00 | 50 | 1012.4 |
| 20260503214821 | 71 | 352 | 2.0 | 6.0 | 0.00 | 0.00 | 0.00 | 54 | 1012.5 |
| 20260503214318 | 71 | 350 | 3.0 | 4.0 | 0.00 | 0.00 | 0.00 | 54 | 1012.6 |
| 20260503213815 | 71 | 13 | 4.0 | 8.0 | 0.00 | 0.00 | 0.00 | 50 | 1012.6 |
| 20260503213313 | 71 | 9 | 6.0 | 9.0 | 0.00 | 0.00 | 0.00 | 52 | 1012.8 |
| 20260503212810 | 71 | 3 | 3.0 | 8.0 | 0.00 | 0.00 | 0.00 | 53 | 1012.6 |
| 20260503212308 | 71 | 9 | 7.0 | 8.0 | 0.00 | 0.00 | 0.00 | 52 | 1012.7 |
| 20260503211805 | 70 | 3 | 6.0 | 8.0 | 0.00 | 0.00 | 0.00 | 53 | 1012.8 |
| 20260503211301 | 71 | 13 | 3.0 | 7.0 | 0.00 | 0.00 | 0.00 | 54 | 1012.8 |
| 20260503210801 | 70 | 338 | 3.0 | 8.0 | 0.00 | 0.00 | 0.00 | 60 | 1012.9 |
| 20260503210259 | 70 | 1 | 6.0 | 8.0 | 0.00 | 0.00 | 0.00 | 54 | 1012.8 |
| 20260503205754 | 70 | 354 | 5.0 | 7.0 | 0.00 | 0.00 | 0.00 | 56 | 1012.9 |
| 20260503205251 | 69 | 27 | 5.0 | 9.0 | 0.00 | 0.00 | 0.00 | 53 | 1012.8 |
| 20260503204747 | 70 | 339 | 6.0 | 9.0 | 0.00 | 0.00 | 0.00 | 54 | 1012.9 |
| 20260503204245 | 71 | 2 | 9.0 | 10.0 | 0.00 | 0.00 | 0.00 | 51 | 1013.0 |
| 20260503203742 | 71 | 341 | 4.0 | 9.0 | 0.00 | 0.00 | 0.00 | 56 | 1012.8 |
| 20260503203239 | 71 | 2 | 4.0 | 8.0 | 0.00 | 0.00 | 0.00 | 54 | 1012.9 |
| 20260503202736 | 71 | 9 | 7.0 | 9.0 | 0.00 | 0.00 | 0.00 | 50 | 1012.9 |